SCOUT X-4 R/B, 1358

Orbit data source: Space-Track

SCOUT X-4 R/B, 1358 is space debris in LEO originally from a launch on Thu, 29 Apr 1965 UTC launched from the Wallops Island (WLPIS). Debris objects in space refer to the collection of defunct objects orbiting the Earth. Examples of debris include non-operational satellites, rocket bodies, and fragments generated from explosions, collisions, or faulty payload assembly.

Loading next visibility...
Identifier
1358, 1965-032B
Orbit
LEO
Country
Flag of USUS
Related business
Manufacturer
ABL
Mission
Spacecraft
Bus & Motor
ALTAIR, Unknown motor
Mass
33 kg wet, 33 kg dry
Launch date (UTC)
1965-04-29 (60 years ago)
Launch vehicle
Unknown
Launch site
Wallops Island (WLPIS)
Object type
Payload
Rocket body
Debris
Shape & HBR
Unknown
Radar Cross Section
Medium (>0.1 m² and <1 m²)

Expand to show TLE details & history
Last TLE update: 7 hours ago

TLE from 7 hours ago
0 SCOUT X-4 R/B
1 01358U 65032B   25291.28598393 -.00000035  00000-0  80256-4 0  9993
2 01358  41.1918  21.6624 0243739  47.2421 314.8566 13.38227401955263
Epoch: 2025-10-18T06:51Z
TLE epoch observation values (Epoch: 2025-10-18T06:51:49.011Z)
Latitude
0.00002°
Longitude
-108.31098°
Altitude
988.975 km
Speed
7.421 km/s
True Right ascension
01h 26m 38s
True Declination
0° 00' 00"
Sunlit
Object was in full shadow at epoch
Visualization orbit readout
Latitude
Unknown
Longitude
Unknown
Altitude
Unknown
Speed
Unknown
Apparent Right ascension
Unknown
Apparent Declination
Unknown
Sunlit
N/A
Visualization observer readout
Local Sidereal Time
09:02:00
Azimuth
Unknown
Elevation
Unknown
Doppler factor
Unknown
Orbital elements
Apogee altitude
1,300.659 km
Perigee altitude
935.241 km
Semi-major axis
7,496.087 km
Eccentricity
0.02437
Inclination
41.1918°
RAAN
21.6624°
Arg. of periapsis
47.2421°
True anomaly
312.83366°
Mean anomaly
314.8566°
Eccentric anomaly
313.84948°
Mean motion
3.34419 °/min
Orbital period
107.65 mins
BSTAR
0.000080256
Loading maneuver chart data...
Computing Atmospheric mass density...
Loading historical data...
Loading historical data...
Loading historical data...
Loading historical data...
Loading historical data...
Loading historical data...
Loading historical data...
Other satellites on launch #32 in the year 1965 (1965-04-29 UTC)

Documentation

Showing up to 5 results
|